www.pogodaiklimat.ru

ПОГОДА в Нью-Берне, NC

  • Прогноз погоды в Нью-Берне
  • Монитор погоды в Нью-Берне
  • Климат в Нью-Берне

АРХИВ ПОГОДЫ в Нью-Берне

Время (UTC), дата Ветер
(напр.,м/с)
 
Видим.   Явления Облачность Т
(С)
Тd
(С)
f
(%)
Тe
(С)
Тes
(С)
Комфортность

P
(гПа)

Po
(гПа)
Тmin
(С)
Tmax
(С)
R
(мм)
SD
(см)
08:54 21.05 ЮЗ  16 км    8/2 360 м
[средняя] 
+21.7  +21.1  96  +28  +28  душно  1013.7  1013.2         
09:47 21.05 ЮЗ  16 км    8/8 300 м
[средняя] 
+22.2  +21.7  97  +29  +29  очень
душно 
  1013.5         
09:54 21.05 ЮЗ  16 км    8/8 300 м  +22.2  +21.7  97  +29  +29  очень
душно 
1014.2  1013.5         
10:11 21.05 З  16 км    10/10 270 м  +22.8  +21.7  94  +31  +31  очень
душно 
  1013.5         
10:19 21.05 З  16 км    10/10 300 м  +22.8  +21.7  94  +31  +31  очень
душно 
  1013.8         
10:54 21.05 З  16 км    10/10 300 м  +23.3  +21.7  91  +32  +32  очень
душно 
1014.7  1014.2  +21.1  +23.3     
11:54 21.05 З  16 км    5/5 420 м  +25.0  +21.1  79  +32  +33  очень
душно 
1014.9  1014.2         
12:09 21.05 З  16 км    8/8 480 м  +25.6  +21.1  76  +32  +33  очень
душно 
  1014.2         
12:18 21.05 СЗ  16 км    5/5 480 м  +25.6  +21.1  76  +32  +35  очень
душно 
  1014.2         
12:54 21.05 СЗ  16 км    ясно  +26.7  +20.6  69  +33  +37  очень
душно 
1014.8  1014.2         
13:54 21.05 нст  16 км    ясно  +27.8  +19.4  60  +33  +44  очень
душно 
1014.9  1014.2         
14:54 21.05 нст  16 км    ясно  +29.4  +18.3  51  +34  +47  очень
душно 
1014.8  1014.2         
15:54 21.05 нст  16 км    ясно  +29.4  +16.7  46  +33  +50  душно  1014.5  1013.8         
16:54 21.05 СВ  16 км    ясно  +31.1  +17.2  43  +35  +50  очень
душно 
1014.4  1013.8  +23.3  +31.1     
17:54 21.05 СВ  16 км    ясно  +31.1  +16.7  42  +34  +49  душно  1013.9  1013.2         
18:54 21.05 В  16 км    ясно  +28.9  +20.6  61  +36  +42  очень
душно 
1013.7  1013.2         
19:54 21.05 ЮВ  16 км    ясно  +27.8  +19.4  60  +33  +37  очень
душно 
1013.8  1013.2         
20:54 21.05 В  16 км    ясно  +26.7  +17.8  58  +31  +34  душно  1014.3  1013.8         
21:54 21.05 В  16 км    ясно  +25.0  +17.8  64  +29  +31  душно  1015.0  1014.5         
22:54 21.05 В  16 км    ясно  +22.8  +16.7  68  +27  +28  душно  1016.2  1015.5  +22.8  +31.7     
23:54 21.05 В  16 км    5/5 1230 м  +22.2  +16.7  71  +27  +27  душно  1017.1  1016.6         
00:54 22.05 В  16 км    8/8 1290 м  +21.7  +16.7  73  +26  +26  душно  1018.3  1017.6         
01:54 22.05 В  16 км    ясно  +20.6  +16.1  75  +24  +24  комфорт  1019.2  1018.6         
02:54 22.05 В  16 км    ясно  +20.0  +14.4  70  +22  +22  комфорт  1019.6  1018.9         
03:54 22.05 В  16 км    2/2 1290 м  +19.4  +13.9  70  +21  +21  комфорт  1019.8  1019.3         
04:54 22.05 В  16 км    ясно  +18.9  +13.9  73  +20  +20    1019.7  1018.9  +18.3  +22.8     
05:54 22.05 СВ  16 км    ясно  +18.3  +13.9  76  +19  +19    1019.9  1019.3         
06:54 22.05 СВ  16 км    8/8 1260 м  +18.3  +13.3  73  +18  +18    1020.3  1019.6         
07:54 22.05 В  16 км    ясно  +17.2  +12.2  72  +17  +17    1020.7  1020.3         
08:54 22.05 СВ  16 км    2/2 1110 м  +17.2  +12.8  75  +17  +17    1021.2  1020.6         
09:54 22.05 В  16 км    2/2 1230 м  +17.8  +12.8  73  +18  +18    1022.1  1021.3         
10:54 22.05 СВ  16 км    2/2 1230 м  +19.4  +12.8  66  +21  +21  комфорт  1022.8  1022.3  +16.7  +19.4     
11:54 22.05 СВ  16 км    ясно              1023.1  1022.3         
12:54 22.05 СВ  16 км    ясно  +22.2  +11.1  49  +24  +31  комфорт  1023.5  1023.0         
13:54 22.05 В  16 км    ясно  +24.4  +10.6  42  +26  +29  жарко  1023.7  1023.0         
14:54 22.05 В  16 км    ясно  +25.0  +10.6  40  +26  +38  жарко  1023.5  1023.0         
15:20 22.05 В  3 км  мгла  ясно  +25.6  +11.1  40  +27  +38  жарко    1023.0         
15:29 22.05 В  16 км    ясно  +25.6  +11.7  42  +27  +38  жарко    1022.6         
15:54 22.05 В  16 км    ясно  +25.6  +12.2  43  +27  +38  жарко  1023.7  1023.0         
16:54 22.05 ЮВ  16 км    ясно  +26.7  +12.2  41  +28  +44  жарко  1023.6  1023.0  +19.4  +26.7     
17:54 22.05     16 км    ясно  +27.2  +13.9  44  +29  +56  опасность
солнечного
удара 
1023.4  1022.6         
18:54 22.05 Ю  16 км    ясно  +25.6  +13.9  48  +28  +32  жарко  1023.6  1023.0         
19:54 22.05 ЮВ  16 км    ясно  +25.6  +13.9  48  +28  +34  жарко  1023.8  1023.3         
20:54 22.05 ЮВ  16 км    ясно  +24.4  +13.3  50  +27  +29  жарко  1024.1  1023.3         
21:54 22.05 В  16 км    ясно  +23.3  +12.8  52  +26  +29  жарко  1024.0  1023.3         
22:54 22.05 В  16 км    ясно  +22.2  +12.2  53  +25  +26  комфорт  1024.4  1023.7  +22.2  +27.8     
23:54 22.05 В  16 км    ясно  +21.1  +12.8  59  +23  +23  комфорт  1024.6  1024.0         
00:54 23.05 ЮВ  16 км    ясно  +20.6  +12.8  61  +23  +23  комфорт  1025.1  1024.3         

 

Местоположение метеостанции Craven County Regional Airport: широта 35.0675 долгота -77.0472 высота над уровнем моря 5 м.

В архиве по умолчанию представлена погода в Нью-Берне за последние 1-2 суток. Обновление информации о фактической погоде в базе происходит ежечасно! Архивные данные за месяц целиком и за предыдущие месяцы Вы можете получить, выбрав интересующий диапазон дат из раскрывающегося списка и нажав кнопку "Ввод!".

Внимание! Архив погоды МЕТАР в базе сайта хранится не более 60 дней. Нет смысла пытаться выбрать более раннюю дату.

Внимание! Время в таблицах - всемирное. Для получения местного времени необходимо прибавить поправку, которая в Нью-Берне равна -5 ч.

Ветер - указаны скорость ветра в м/с и направление, откуда дует ветер: С - северный, СВ - северо-восточный, В - восточный, ЮВ - юго-восточный, Ю - южный, ЮЗ - юго-западный, З - западный, СЗ - северо-западный.
Видимость - горизонтальная дальность видимости в метрах или километрах. При видимости от 1 до 10 км при отсутствии осадков обычно наблюдается дымка, при ухудшении видимости до 1 км и менее - туман. В сухую погоду видимость может ухудшаться дымом, пылью или мглою.
Атмосферные явления - указаны явления, наблюдавшиеся в указанный момент времени.
Облачность - указаны через наклонную черту верхняя и нижняя облачность в баллах и высота нижней границы облаков в метрах. Внимание: облачность, как и прочие метеорологические величины в США измеряются автоматическими метеостанциями. Указанные значения в баллах носят условный характер и показывают процент времени, в течение которого, в среднем, лазерный луч высотомера отражался от облаков обратно.
T - Температура воздуха - температура, измеренная на высоте 2 м над землей.
Td - Температура точки росы - температура, при понижении до которой содержащийся в воздухе водяной пар достигнет насыщения.
f - Относительная влажность воздуха - влажноcть воздуха, измеренная на высоте 2 м над землей.
Te - Эффективная температура - температура, которую ощущает одетый по сезону человек в тени. Характеристика душности погоды. При расчете учитывается влияние влажности воздуха и скорости ветра на теплоощущения человека.
Tes - Эффективная температура на солнце - температура, которую ощущает человек, с поправкой на солнечный нагрев. Характеристика знойности погоды. Зависит от высоты солнца над горизонтом, облачности и скорости ветра. Ночью, в пасмурную погоду, а также при ветре 12 м/с и более поправка равна нулю.
P - Атмосферное давление - приведенное к уровню моря атмосферное давление.
Po - Атмосферное давление - измеренное на уровне метеостанции атмосферное давление.
Tmin - Минимальная температура - минимум температуры воздуха на высоте 2 м над землей.
Tmax - Максимальная температура - максимум температуры воздуха на высоте 2 м над землей.
R - Количество осадков - Количество выпавших осадков за 3 или 6 часов, мм.
SD - Снежный покров - Высота снежного покрова, см.